Location: Izdebno
(52.6670°N, 16.2170°E)
Time: 19:15:36
(UTC+01:00)

Transit 2A - Pass Details

Date: 07 February 2023
Orbit: 591 x 964 km, 66.7° (Epoch: 21 March)

Event Time Altitude Azimuth Distance (km) Brightness Sun altitude
Rises 23:45:43 0° 320° (NW) 3,446 9.9 -52.2°
Enters shadow 23:46:14 - 320° (NW) 3,254 9.7 -52.2°
Reaches altitude 10° 23:48:08 10° 322° (NW) 2,554 - -52.3°
Maximum altitude 23:54:09 75° 48° (NE) 969 - -52.4°
Drops below altitude 10° 00:00:30 10° 134° (SE) 2,691 - -52.4°
Sets 00:03:06 0° 136° (SE) 3,642 - -52.5°
